Weather History for Paso Robles, CA

Change the Weather History Date:

Friday, April 13, 2012

  Actual Average Record
Temperature  
Mean Temperature 48 °F 56 °F  
Max Temperature 56 °F 72 °F 96 °F (1985)
Min Temperature 40 °F 41 °F 32 °F (1957)
Degree Days  
Heating Degree Days 17 9  
Month to date heating degree days 160 129  
Since 1 July heating degree days 2592 2588  
Cooling Degree Days 0 0  
Month to date cooling degree days 0 0  
Year to date cooling degree days 0 0  
Moisture  
Dew Point 44 °F    
Average Humidity 77    
Maximum Humidity 93    
Minimum Humidity 61    
Precipitation  
Precipitation 1.37 in 0.02 in 1.37 in (2012)
Month to date precipitation 1.72 0.38  
Year to date precipitation 5.67 8.21  
Since 1 July precipitation 8.48 12.20  
Sea Level Pressure  
Sea Level Pressure 29.81 in    
Wind  
Wind Speed 8 mph (WSW)    
Max Wind Speed 28 mph    
Max Gust Speed 37 mph    
Visibility 7 miles    
Events Rain    
T = Trace of Precipitation, MM = Missing Value Source: NWS Daily Summary

Daily Weather History Graph

Daily Weather History Graph

Search for Another Location

Airport:

Trip Planner

Search our weather history database for the weather conditions in past years. The results will help you decide how hot, cold, wet, or windy it might be!

Date:

Astronomy

Apr. 13, 2012 Rise Set
Actual Time 6:31 AM PDT 7:34 PM PDT
Civil Twilight 6:05 AM PDT 8:00 PM PDT
Nautical Twilight 5:34 AM PDT 8:32 PM PDT
Astronomical Twilight 5:02 AM PDT 9:04 PM PDT
Moon 2:04 AM PDT (4/13) 12:43 PM PDT (4/13)
Length of Visible Light 13h 55m
Length of Day
13h 02m
Waning Gibbous, 46% of the Moon is Illuminated
Apr 13
Waning Gibbous
Apr 21
New
Apr 29
First Quarter
May 5
Full
May 12
Last Quarter

Hourly Weather History & Observations

Time (PDT) Temp. Windchill Dew Point Humidity Pressure Visibility Wind Dir Wind Speed Gust Speed Precip Events Conditions
12:53 AM 53.1 °F - 46.9 °F 80% 29.91 in 10.0 mi SSE 4.6 mph - 0.00 in   Overcast
1:24 AM 53.6 °F - 46.4 °F 77% 29.88 in 10.0 mi South 13.8 mph 18.4 mph N/A   Mostly Cloudy
1:53 AM 53.1 °F - 46.9 °F 80% 29.88 in 5.0 mi SSW 11.5 mph 19.6 mph 0.02 in Rain Rain
2:19 AM 50.0 °F - 46.4 °F 87% 29.88 in 2.5 mi SW 11.5 mph - 0.14 in Rain Heavy Rain
2:29 AM 50.0 °F - 46.4 °F 87% 29.86 in 4.0 mi South 6.9 mph - N/A Rain Rain
2:53 AM 50.0 °F - 45.0 °F 83% 29.84 in 8.0 mi South 11.5 mph - 0.18 in Rain Light Rain
3:43 AM 48.2 °F - 46.4 °F 93% 29.82 in 2.5 mi NW 3.5 mph - 0.09 in Rain Heavy Rain
3:50 AM 48.2 °F - 46.4 °F 93% 29.83 in 2.5 mi SSW 12.7 mph 33.4 mph 0.14 in Rain Heavy Rain
3:53 AM 48.9 °F - 46.0 °F 90% 29.82 in 3.0 mi WSW 9.2 mph 33.4 mph 0.15 in Rain Heavy Rain
4:06 AM 48.2 °F - 46.4 °F 93% 29.81 in 2.5 mi West 5.8 mph - 0.07 in Rain Heavy Rain
4:25 AM 48.2 °F - 46.4 °F 93% 29.80 in 4.0 mi SSW 3.5 mph - 0.17 in Rain Rain
4:53 AM 50.0 °F - 46.9 °F 89% 29.78 in 4.0 mi WSW 8.1 mph - 0.34 in Rain Heavy Rain
5:08 AM 50.0 °F - 46.4 °F 87% 29.78 in 6.0 mi SSW 12.7 mph - 0.06 in Rain Rain
5:53 AM 48.9 °F - 46.0 °F 90% 29.78 in 10.0 mi SSW 9.2 mph - 0.12 in Rain Light Rain
6:53 AM 48.9 °F - 45.0 °F 86% 29.75 in 10.0 mi South 6.9 mph - 0.02 in Rain Light Rain
7:25 AM 48.2 °F - 44.6 °F 87% 29.77 in 10.0 mi South 9.2 mph - 0.01 in Rain Light Rain
7:53 AM 48.9 °F - 45.0 °F 86% 29.77 in 10.0 mi South 8.1 mph - 0.02 in Rain Light Rain
8:15 AM 48.2 °F - 44.6 °F 87% 29.77 in 2.0 mi SW 3.5 mph - 0.05 in Rain Heavy Rain
8:23 AM 48.2 °F - 46.4 °F 93% 29.78 in 1.8 mi SSW 6.9 mph - 0.09 in Rain Heavy Rain
8:37 AM 48.2 °F - 44.6 °F 87% 29.79 in 1.2 mi WNW 11.5 mph - 0.21 in Rain Heavy Rain
8:51 AM 46.4 °F 41.5 °F 42.8 °F 87% 29.81 in 1.8 mi WNW 10.4 mph - 0.31 in Rain Heavy Rain
8:53 AM 46.9 °F - 43.0 °F 86% 29.81 in 2.0 mi WNW 10.4 mph - 0.31 in Rain Rain
9:53 AM 48.0 °F - 43.0 °F 83% 29.79 in 10.0 mi Calm Calm - 0.08 in   Overcast
10:53 AM 48.9 °F - 44.1 °F 83% 29.80 in 10.0 mi South 5.8 mph - 0.00 in Rain Light Rain
11:53 AM 51.1 °F - 45.0 °F 80% 29.79 in 10.0 mi SSW 9.2 mph - 0.00 in   Partly Cloudy
12:53 PM 55.0 °F - 46.0 °F 72% 29.76 in 10.0 mi SSW 10.4 mph - N/A   Scattered Clouds
1:35 PM 51.8 °F - 42.8 °F 71% 29.76 in 4.0 mi West 9.2 mph - 0.07 in Rain Heavy Rain
1:53 PM 53.1 °F - 44.1 °F 71% 29.76 in 10.0 mi NNW 17.3 mph 25.3 mph 0.07 in   Mostly Cloudy
2:01 PM 53.6 °F - 42.8 °F 67% 29.78 in 10.0 mi NNW 21.9 mph 26.5 mph N/A   Mostly Cloudy
2:53 PM 53.1 °F - 43.0 °F 69% 29.78 in 10.0 mi North 9.2 mph - 0.04 in   Partly Cloudy
3:53 PM 46.9 °F - 39.9 °F 77% 29.79 in 10.0 mi NNW 18.4 mph 24.2 mph 0.01 in Rain Light Rain
4:53 PM 53.1 °F - 39.9 °F 61% 29.79 in 10.0 mi NW 12.7 mph - 0.00 in   Mostly Cloudy
5:53 PM 51.1 °F - 41.0 °F 68% 29.80 in 10.0 mi NW 8.1 mph - 0.00 in   Overcast
6:53 PM 50.0 °F - 37.0 °F 61% 29.81 in 10.0 mi West 10.4 mph - 0.00 in   Scattered Clouds
7:53 PM 48.0 °F - 39.0 °F 71% 29.84 in 10.0 mi WNW 9.2 mph - 0.00 in   Mostly Cloudy
8:53 PM 44.1 °F 42.5 °F 39.9 °F 85% 29.86 in 10.0 mi WNW 3.5 mph - N/A   Clear
9:53 PM 43.0 °F 40.3 °F 37.9 °F 82% 29.88 in 10.0 mi West 4.6 mph - N/A   Clear
10:53 PM 42.1 °F - 37.0 °F 82% 29.88 in 10.0 mi Calm Calm - N/A   Clear
11:53 PM 41.0 °F 38.0 °F 37.0 °F 86% 29.88 in 10.0 mi WSW 4.6 mph - N/A   Scattered Clouds